• In Moldova, Republic
  • List of Countries
  • For 7 days
  • Water Temperature
  • Satellite Maps
  • Weather Map
  • Weather Widgets
  • user-avatar
    Login

    Hourly Weather Konstantyna

    Today, 30 April, Sunday

    Time Temperature Precipitation Wind Pressure Humidity
    00:00 +10°C° 0.2 mm 1 mps 707 mmHg 94%
    01:00 +10°C° 0 mm 1 mps 707 mmHg 94%
    02:00 +10°C° 0 mm 1 mps 707 mmHg 94%
    03:00 +10°C° 0 mm 1 mps 706 mmHg 94%
    04:00 +12°C° 0 mm 1 mps 707 mmHg 89%
    05:00 +13°C° 0 mm 1 mps 707 mmHg 85%
    06:00 +15°C° 0 mm 1 mps 708 mmHg 80%
    07:00 +16°C° 0 mm 1 mps 708 mmHg 73%
    08:00 +19°C° 0 mm 1 mps 708 mmHg 66%
    09:00 +21°C° 0 mm 1 mps 709 mmHg 59%
    10:00 +21°C° 0 mm 2 mps 709 mmHg 53%
    11:00 +24°C° 0 mm 2 mps 709 mmHg 47%
    12:00 +25°C° 0 mm 2 mps 709 mmHg 42%
    13:00 +24°C° 0.4 mm 2 mps 709 mmHg 45%
    14:00 +24°C° 0.4 mm 3 mps 708 mmHg 48%
    15:00 +22°C° 0.4 mm 3 mps 708 mmHg 52%
    16:00 +21°C° 0.1 mm 3 mps 708 mmHg 59%
    17:00 +19°C° 0.1 mm 2 mps 708 mmHg 67%
    18:00 +17°C° 0.1 mm 2 mps 708 mmHg 75%
    19:00 +15°C° 0 mm 2 mps 708 mmHg 81%
    20:00 +13°C° 0 mm 1 mps 708 mmHg 88%
    21:00 +11°C° 0 mm 1 mps 709 mmHg 94%
    22:00 +11°C° 0 mm 1 mps 709 mmHg 94%
    23:00 +11°C° 0 mm 1 mps 709 mmHg 94%

    Tomorrow, 1 May, Monday

    Time Temperature Precipitation Wind Pressure Humidity
    00:00 +11°C° 0 mm 1 mps 709 mmHg 94%
    01:00 +10°C° 0 mm 1 mps 709 mmHg 94%
    02:00 +10°C° 0 mm 1 mps 709 mmHg 94%
    03:00 +10°C° 0 mm 1 mps 708 mmHg 94%
    04:00 +11°C° 0 mm 1 mps 709 mmHg 89%
    05:00 +13°C° 0 mm 1 mps 709 mmHg 84%
    06:00 +14°C° 0 mm 0 mps 710 mmHg 80%
    07:00 +18°C° 0 mm 1 mps 710 mmHg 71%
    08:00 +20°C° 0 mm 1 mps 711 mmHg 62%
    09:00 +22°C° 0 mm 1 mps 712 mmHg 54%
    10:00 +23°C° 0 mm 1 mps 712 mmHg 49%
    11:00 +24°C° 0 mm 2 mps 712 mmHg 45%
    12:00 +25°C° 0 mm 2 mps 712 mmHg 40%
    13:00 +25°C° 0 mm 2 mps 711 mmHg 42%
    14:00 +24°C° 0 mm 3 mps 711 mmHg 44%
    15:00 +24°C° 0 mm 3 mps 711 mmHg 47%
    16:00 +21°C° 0.1 mm 3 mps 711 mmHg 56%
    17:00 +19°C° 0.1 mm 3 mps 711 mmHg 66%
    18:00 +17°C° 0.1 mm 3 mps 711 mmHg 76%
    19:00 +15°C° 0 mm 2 mps 711 mmHg 83%
    20:00 +13°C° 0 mm 1 mps 711 mmHg 90%
    21:00 +12°C° 0 mm 1 mps 711 mmHg 97%
    22:00 +11°C° 0 mm 1 mps 711 mmHg 97%
    23:00 +11°C° 0 mm 1 mps 711 mmHg 97%

    Day after tomorrow, 2 May, Tuesday

    Time Temperature Precipitation Wind Pressure Humidity
    00:00 +10°C° 0 mm 0 mps 711 mmHg 96%
    01:00 +10°C° 0 mm 0 mps 711 mmHg 96%
    02:00 +10°C° 0 mm 0 mps 711 mmHg 96%
    03:00 +11°C° 0 mm 1 mps 711 mmHg 96%
    04:00 +12°C° 0 mm 1 mps 711 mmHg 94%
    05:00 +13°C° 0 mm 1 mps 711 mmHg 92%
    06:00 +14°C° 0 mm 1 mps 711 mmHg 90%
    07:00 +16°C° 0 mm 1 mps 712 mmHg 80%
    08:00 +19°C° 0 mm 1 mps 712 mmHg 70%
    09:00 +21°C° 0 mm 1 mps 712 mmHg 60%
    10:00 +22°C° 0.4 mm 1 mps 712 mmHg 59%
    11:00 +21°C° 0.4 mm 2 mps 712 mmHg 57%
    12:00 +23°C° 0.4 mm 2 mps 712 mmHg 56%
    13:00 +23°C° 0.7 mm 2 mps 712 mmHg 57%
    14:00 +23°C° 0.7 mm 2 mps 711 mmHg 58%
    15:00 +23°C° 0.7 mm 2 mps 711 mmHg 60%
    16:00 +20°C° 0.7 mm 2 mps 711 mmHg 67%
    17:00 +19°C° 0.7 mm 2 mps 711 mmHg 74%
    18:00 +17°C° 0.7 mm 2 mps 711 mmHg 81%
    19:00 +16°C° 0.2 mm 1 mps 711 mmHg 86%
    20:00 +14°C° 0.2 mm 1 mps 711 mmHg 90%
    21:00 +13°C° 0.2 mm 1 mps 711 mmHg 94%
    22:00 +12°C° 0.2 mm 1 mps 711 mmHg 94%
    23:00 +12°C° 0.2 mm 1 mps 710 mmHg 94%

    3 May, Wednesday

    Time Temperature Precipitation Wind Pressure Humidity
    00:00 +12°C° 0.2 mm 1 mps 710 mmHg 94%
    01:00 +12°C° 0 mm 1 mps 710 mmHg 93%
    02:00 +12°C° 0 mm 1 mps 710 mmHg 93%
    03:00 +12°C° 0 mm 1 mps 709 mmHg 92%
    04:00 +14°C° 0 mm 1 mps 710 mmHg 88%
    05:00 +15°C° 0 mm 1 mps 710 mmHg 85%
    06:00 +16°C° 0 mm 1 mps 710 mmHg 81%
    07:00 +19°C° 0 mm 1 mps 711 mmHg 71%
    08:00 +21°C° 0 mm 2 mps 711 mmHg 61%
    09:00 +24°C° 0 mm 2 mps 712 mmHg 51%
    10:00 +25°C° 0.4 mm 2 mps 711 mmHg 48%
    11:00 +26°C° 0.4 mm 3 mps 711 mmHg 46%
    12:00 +27°C° 0.4 mm 3 mps 711 mmHg 43%
    13:00 +27°C° 0.3 mm 3 mps 711 mmHg 44%
    14:00 +27°C° 0.3 mm 3 mps 710 mmHg 45%
    15:00 +26°C° 0.3 mm 3 mps 710 mmHg 46%
    16:00 +24°C° 0.4 mm 2 mps 710 mmHg 56%
    17:00 +21°C° 0.4 mm 2 mps 710 mmHg 66%
    18:00 +20°C° 0.4 mm 1 mps 709 mmHg 76%
    19:00 +18°C° 0.4 mm 1 mps 709 mmHg 80%
    20:00 +16°C° 0.4 mm 1 mps 709 mmHg 85%
    21:00 +15°C° 0.4 mm 1 mps 709 mmHg 89%
    22:00 +14°C° 0.2 mm 1 mps 709 mmHg 88%
    23:00 +14°C° 0.2 mm 1 mps 709 mmHg 88%

    4 May, Thursday

    Time Temperature Precipitation Wind Pressure Humidity
    00:00 +14°C° 0.2 mm 1 mps 709 mmHg 87%
    01:00 +14°C° 0.1 mm 1 mps 708 mmHg 86%
    02:00 +14°C° 0.1 mm 1 mps 708 mmHg 85%
    03:00 +13°C° 0.1 mm 1 mps 708 mmHg 84%
    04:00 +15°C° 0 mm 1 mps 708 mmHg 81%
    05:00 +16°C° 0 mm 1 mps 708 mmHg 79%
    06:00 +18°C° 0 mm 1 mps 708 mmHg 76%
    07:00 +20°C° 0 mm 2 mps 709 mmHg 64%
    08:00 +24°C° 0 mm 2 mps 709 mmHg 53%
    09:00 +27°C° 0 mm 3 mps 709 mmHg 41%
    10:00 +28°C° 0 mm 3 mps 709 mmHg 38%
    11:00 +29°C° 0 mm 3 mps 709 mmHg 34%
    12:00 +30°C° 0 mm 3 mps 709 mmHg 31%
    13:00 +29°C° 0 mm 3 mps 708 mmHg 34%
    14:00 +29°C° 0 mm 3 mps 708 mmHg 37%
    15:00 +28°C° 0 mm 3 mps 708 mmHg 41%
    16:00 +26°C° 0 mm 2 mps 708 mmHg 50%
    17:00 +24°C° 0 mm 2 mps 707 mmHg 59%
    18:00 +22°C° 0 mm 1 mps 707 mmHg 68%
    19:00 +20°C° 0 mm 1 mps 707 mmHg 74%
    20:00 +19°C° 0 mm 1 mps 707 mmHg 80%
    21:00 +16°C° 0 mm 1 mps 707 mmHg 86%
    22:00 +16°C° 0 mm 1 mps 707 mmHg 86%
    23:00 +16°C° 0 mm 1 mps 707 mmHg 85%

    5 May, Friday

    Time Temperature Precipitation Wind Pressure Humidity
    00:00 +16°C° 0 mm 1 mps 707 mmHg 84%
    01:00 +16°C° 0 mm 1 mps 707 mmHg 80%
    02:00 +16°C° 0 mm 1 mps 707 mmHg 76%
    03:00 +16°C° 0 mm 1 mps 706 mmHg 72%
    04:00 +17°C° 0 mm 2 mps 707 mmHg 68%
    05:00 +18°C° 0 mm 2 mps 707 mmHg 63%
    06:00 +19°C° 0 mm 2 mps 707 mmHg 58%
    07:00 +24°C° 0 mm 2 mps 708 mmHg 48%
    08:00 +27°C° 0 mm 3 mps 708 mmHg 39%
    09:00 +30°C° 0 mm 4 mps 709 mmHg 29%
    10:00 +32°C° 0 mm 4 mps 709 mmHg 27%
    11:00 +34°C° 0 mm 4 mps 708 mmHg 24%
    12:00 +35°C° 0 mm 4 mps 708 mmHg 22%
    13:00 +34°C° 0 mm 3 mps 708 mmHg 24%
    14:00 +34°C° 0 mm 3 mps 708 mmHg 25%
    15:00 +34°C° 0 mm 3 mps 707 mmHg 27%
    16:00 +30°C° 0 mm 3 mps 707 mmHg 35%
    17:00 +28°C° 0 mm 2 mps 707 mmHg 43%
    18:00 +26°C° 0 mm 2 mps 707 mmHg 52%
    19:00 +24°C° 0 mm 2 mps 707 mmHg 55%
    20:00 +22°C° 0 mm 1 mps 707 mmHg 59%
    21:00 +20°C° 0 mm 1 mps 707 mmHg 63%
    22:00 +20°C° 0 mm 1 mps 707 mmHg 63%
    23:00 +19°C° 0 mm 1 mps 707 mmHg 62%
    Show more